{"data":{"norad_id":67541,"intl_designator":"2026-014K","name":"STARLINK-36579","alt_names":[],"object_type":"PAYLOAD","status":"ACTIVE","operator":null,"country":"US","launch_date":"2026-01-22","launch_site_code":"AFWTR","launch_vehicle":null,"mission":null,"orbit_class":"UNKNOWN","rcs_meters":null,"size_class":null,"mass_kg":null,"dimensions":null,"purposes":["comms"],"wikipedia_slug":null,"has_3d_model":false,"image_url":null,"decayed_at":null,"tle_current":{"epoch":"2026-05-25T03:03:45.466848Z","epoch_age_seconds":57412,"freshness":"FRESH","line1":"1 67541U 26014K   26145.12760957  .00028665  00000+0  88642-3 0  9998","line2":"2 67541  97.2876  32.2630 0001095 105.9026 254.2337 15.33460714 20505","mean_motion":15.33460714,"eccentricity":0.0001095,"inclination_deg":97.2876,"raan_deg":32.263,"arg_perigee_deg":105.9026,"mean_anomaly_deg":254.2337,"bstar":0.00088642,"rev_number":2050,"period_min":93.905242361494,"perigee_km":464.74704320952,"apogee_km":466.24579892873,"semimajor_km":6843.6334210691,"source":"CELESTRAK","updated_at":"2026-05-25T13:38:21.608477Z"}}}